User: anonymous   Login
Location: CNYAC Observatory
(43.2150°N, 74.9500°W)
Time: 12:47:22
(UTC-04:00)
Language:

Meteor 1-22 Rocket - Orbit

View from above orbital plane
View from above orbital plane
View from above satellite
View from above satellite

Ground track
Ground track

The orbit data is extracted from the following two-line orbital elements,

1 08294U 75087B   15181.20291469 -.00000018  00000-0 -16149-4 0  9995
2 08294 081.2058 002.3991 0104574 267.8865 091.0328 14.08495684 43779
Epoch (UTC): 30 June 2015 04:52:11
Eccentricity: 0.0104574
inclination: 81.2058°
perigee height: 789 km
apogee height: 940 km
right ascension of ascending node: 2.3991°
argument of perigee: 267.8865°
revolutions per day: 14.08495684
mean anomaly at epoch: 91.0328°
orbit number at epoch: 4377

The dashed part of the orbit path shows where the satellite is in the earth's shadow,  

DLR